Wind_Speed
17 15 12 12 13 14 14 14 15 16 16 16 16 17 20 22 24 24 24 24 24 23 23 25 26 26 26 26 27 27 27 27 27 28 28 28 29 30 30 31 31 32 32 33 35 36 36 36 36 34 31 29 28 28 28 29 29 30 32 33 34 34 34 34 34 32 31 30 30 30 30 29 29 29 29 29 29 28 27 24 22 21 19 18 17 17
17 14 13 13 13 15 16 15 14 14 16 16 16 17 18 20 23 25 25 25 25 23 21 22 23 24 25 26 27 27 27 27 28 27 27 28 28 28 29 30 31 32 33 34 34 36 37 37 36 33 29 28 28 30 31 32 32 33 34 34 34 34 34 34 33 32 32 31 31 31 31 31 30 30 30 29 28 27 26 25 23 21 20 19 19 18
14 12 14 14 13 14 16 16 14 13 15 16 17 16 16 18 20 23 25 26 25 23 21 20 21 22 23 25 25 25 25 25 26 26 25 25 25 25 26 27 30 32 34 35 36 38 38 37 34 30 28 28 30 32 33 34 35 35 35 35 35 35 34 33 33 32 32 32 32 32 31 31 30 29 29 28 27 26 25 24 23 22 21 21 20 19
13 10 11 11 10 12 15 17 16 14 14 15 16 16 15 16 19 22 24 24 24 22 21 21 21 21 22 22 21 21 22 23 24 24 24 23 23 23 23 25 28 30 33 36 38 39 37 34 31 29 29 30 32 34 35 36 36 36 35 35 35 34 34 33 33 32 32 32 31 31 30 30 29 29 28 28 27 26 25 24 24 23 23 22 21 20
15 12 10 8 8 10 13 16 17 15 13 15 16 16 15 15 17 20 21 20 19 19 19 19 20 21 21 20 20 20 21 22 22 23 23 23 23 23 24 25 26 28 31 34 36 36 33 31 30 30 30 32 34 36 37 37 36 35 34 34 33 33 33 33 33 32 32 31 31 31 30 30 29 29 28 27 27 26 26 25 24 24 24 23 22 21
18 16 13 9 8 9 11 15 18 17 15 15 16 16 15 14 15 18 18 17 16 16 16 16 18 19 20 20 20 20 20 20 20 20 21 22 23 24 25 25 26 26 28 29 31 31 30 30 30 31 33 35 36 37 36 35 34 34 33 33 33 33 33 33 33 33 32 32 31 31 31 30 29 29 28 28 27 27 26 26 25 25 24 24 23 22
16 16 15 14 12 11 12 15 17 18 18 16 15 16 16 15 15 16 17 17 16 16 15 16 18 20 21 21 21 21 19 18 17 17 17 18 20 22 24 25 26 26 27 27 28 29 31 32 33 34 36 38 38 37 35 34 33 33 32 32 32 33 33 33 33 33 32 32 31 31 30 30 29 29 28 28 28 28 27 27 26 26 25 24 24 23
15 14 14 16 15 14 14 16 18 19 19 17 15 15 16 15 16 16 18 18 17 16 16 18 20 21 22 22 22 22 20 18 17 16 16 15 16 18 21 24 26 28 29 30 32 33 35 36 37 38 39 39 38 36 34 33 33 33 32 32 33 33 33 33 32 32 32 31 30 30 30 29 29 29 29 29 29 29 28 28 27 26 25 24 24 23
15 14 14 16 17 16 16 17 20 21 20 18 16 15 15 16 17 18 19 20 18 17 16 18 20 21 23 23 23 22 21 20 19 18 17 17 16 16 17 19 22 26 29 32 35 37 38 39 40 40 39 38 36 35 34 33 33 33 33 32 32 32 32 32 31 31 30 30 29 29 29 30 30 30 30 30 30 30 29 28 27 26 26 25 24 23
18 16 15 17 19 19 18 18 20 22 22 20 19 18 16 16 17 18 18 19 18 17 16 17 19 20 22 23 23 22 21 19 18 18 18 19 20 19 18 17 17 19 22 25 29 32 34 35 36 36 36 35 35 34 34 33 33 33 33 32 32 31 31 31 30 30 30 29 29 30 30 31 31 31 31 31 30 30 29 28 28 27 26 25 24 23
18 19 17 17 18 19 20 18 19 21 22 21 22 22 20 19 18 17 17 17 17 16 16 16 17 18 20 21 21 22 21 20 18 18 18 19 20 20 20 20 18 17 17 18 20 22 25 28 30 32 33 33 34 34 34 34 33 33 33 32 32 31 30 29 30 30 30 30 31 31 32 32 32 32 31 31 30 30 29 29 28 27 26 25 24 23
16 17 17 17 18 18 18 17 16 17 18 18 19 20 21 22 21 19 17 17 17 17 17 16 16 17 19 19 20 21 21 21 21 20 20 20 20 20 21 21 21 20 19 18 17 17 19 22 24 27 29 31 32 32 33 33 33 33 33 33 32 31 30 29 30 30 31 31 32 32 32 32 32 31 31 30 30 29 29 28 27 27 26 25 24 23
14 16 17 19 19 18 17 15 14 14 14 15 15 14 17 22 23 21 19 18 18 19 19 18 17 18 18 18 19 20 20 20 21 22 23 23 23 22 22 22 22 22 22 22 21 20 20 21 22 23 25 27 28 30 31 32 32 33 33 33 32 32 31 31 31 31 32 32 32 32 32 31 30 30 29 28 28 28 27 27 27 26 25 24 23 22
12 14 16 17 18 18 18 16 15 14 13 15 15 14 15 20 23 24 21 19 20 21 21 20 19 19 18 19 19 19 20 20 21 21 22 23 24 24 24 24 23 23 22 22 23 23 24 24 25 25 25 26 27 27 28 29 30 31 32 33 33 32 32 32 31 31 31 31 31 30 30 29 28 27 27 26 26 26 26 26 25 25 24 23 23 22
11 12 12 11 13 16 17 18 17 16 15 16 17 16 14 17 21 23 21 19 20 20 21 20 20 19 19 20 21 20 21 20 20 19 18 19 21 23 24 24 24 24 23 22 23 24 26 26 26 27 28 28 28 28 28 29 29 30 31 32 32 32 32 32 31 30 29 28 27 26 25 25 24 24 24 24 24 24 24 24 24 24 23 22 21 20
8 11 10 9 11 15 17 19 18 16 15 17 19 18 15 16 19 20 19 20 20 19 19 19 17 16 17 22 24 23 23 22 20 19 17 16 17 19 21 22 22 22 22 22 23 24 25 26 26 27 28 29 30 31 30 30 30 31 31 31 31 31 31 31 30 29 28 26 25 23 23 23 23 23 23 23 23 23 23 23 23 22 21 21 20 19
6 5 6 8 11 15 20 21 20 17 16 17 19 20 18 18 19 19 18 18 18 18 19 18 11 7 11 19 24 26 25 23 22 20 19 18 18 18 19 20 20 19 20 21 22 23 23 24 25 26 28 30 32 33 33 33 33 33 33 33 32 32 31 31 30 30 30 29 28 27 26 26 25 24 24 23 23 22 22 22 21 21 20 19 18 17
11 10 10 8 6 6 9 10 13 17 16 17 18 19 21 22 23 22 19 17 18 19 20 20 15 9 7 12 20 26 28 26 25 23 21 20 19 18 18 19 19 19 18 19 19 20 21 22 23 26 30 33 34 35 36 36 37 37 37 37 36 36 36 35 35 35 34 33 32 31 30 28 27 26 25 24 23 22 22 21 21 20 19 18 17 16
11 12 11 11 10 9 8 8 5 1 5 9 14 18 22 24 24 22 19 18 19 21 22 19 18 18 16 17 22 28 30 28 27 25 22 20 19 20 20 20 20 19 18 18 18 18 19 19 22 26 30 34 36 38 38 39 39 39 39 39 39 39 39 38 38 37 35 34 32 31 29 28 27 25 24 23 23 22 21 21 20 20 19 18 17 15
13 14 13 12 11 10 10 10 9 8 5 3 9 16 21 24 23 20 21 18 19 22 24 22 21 20 21 22 25 29 31 30 28 25 22 19 20 21 22 22 22 21 20 19 18 18 18 19 22 25 29 33 36 38 39 40 40 39 39 39 39 38 37 36 35 34 32 31 30 28 27 26 25 24 24 23 23 22 21 21 20 19 18 17 16 14
14 15 16 15 13 10 9 9 10 9 7 5 7 10 16 22 21 17 17 18 20 22 24 23 23 23 24 24 25 28 31 30 27 23 20 19 20 22 23 24 24 23 21 20 19 19 20 21 23 25 28 31 34 36 38 38 38 37 37 36 36 35 34 33 32 31 29 29 28 27 26 25 25 24 23 23 22 22 21 20 19 18 17 16 15 13
15 16 18 17 15 11 10 10 11 10 9 9 8 5 4 13 16 15 16 17 19 20 22 23 24 25 26 26 27 29 29 29 26 24 21 17 16 19 24 24 23 22 20 20 19 19 21 22 24 25 27 29 31 33 34 35 35 35 34 34 33 33 32 31 30 29 28 27 27 26 25 25 24 24 23 23 22 21 20 19 18 17 16 15 13 12
19 18 19 18 16 13 11 12 14 14 12 11 10 9 6 0 5 11 17 17 17 17 18 20 25 28 29 28 27 27 27 27 27 27 23 15 13 17 23 25 24 22 20 20 20 21 22 23 23 24 25 27 28 30 31 32 33 33 33 32 32 31 30 29 29 28 27 27 26 26 25 25 24 24 23 23 22 21 20 19 17 16 15 13 12 11
23 21 20 19 18 16 15 16 18 18 15 13 11 10 9 5 2 7 15 20 21 21 23 26 29 29 27 26 25 25 25 25 26 25 21 16 15 19 23 26 24 22 20 21 22 23 23 23 22 23 23 25 26 27 29 30 31 31 31 31 30 30 29 28 27 27 26 26 26 26 25 25 24 24 23 22 21 20 19 18 17 15 14 13 12 10
24 23 22 21 20 20 20 20 22 22 19 16 14 13 12 10 11 16 21 25 26 27 27 27 24 21 20 22 23 23 25 24 24 23 21 18 18 21 25 26 24 21 21 24 26 27 26 25 23 22 23 23 24 25 27 28 29 29 29 29 29 28 28 27 27 26 26 26 26 25 25 25 24 23 22 22 21 20 19 17 16 15 13 12 11 10
25 25 24 23 22 23 24 24 24 23 21 18 16 14 15 15 17 20 23 24 25 26 24 20 15 14 16 18 19 20 23 23 22 22 23 21 20 21 23 24 24 24 25 28 30 30 30 28 26 25 25 25 25 25 26 27 27 28 28 28 27 27 27 27 27 26 26 26 25 25 25 24 23 23 22 21 20 19 18 16 15 14 13 12 10 9
26 26 26 25 25 25 26 25 24 23 22 20 18 16 16 17 17 15 12 11 14 20 20 14 9 9 13 14 15 18 23 23 22 23 25 26 24 21 20 23 27 30 30 31 32 32 31 29 27 27 28 27 27 26 26 26 27 27 27 27 27 27 27 27 26 26 26 25 25 24 24 23 22 22 21 20 19 18 16 15 14 13 12 11 9 8
27 27 27 27 27 27 27 26 24 23 23 22 20 18 18 19 17 14 12 9 5 13 18 13 9 7 8 10 13 18 24 23 22 24 26 26 22 20 21 26 30 33 31 30 31 32 30 28 27 27 29 29 29 28 27 27 27 26 26 26 27 27 26 26 26 26 25 25 24 23 23 22 21 21 20 19 18 17 15 14 13 12 10 9 8 6
28 28 28 29 28 28 28 28 27 26 25 23 21 20 19 20 19 17 15 12 7 7 12 14 14 12 12 14 17 20 21 21 22 24 26 24 21 21 24 27 30 32 31 27 27 28 27 27 26 27 29 29 29 29 28 27 27 27 27 27 26 26 26 26 25 25 24 24 23 22 22 21 20 19 19 18 17 16 14 13 12 10 8 7 5 4
29 29 29 29 29 29 30 30 30 29 27 25 24 22 21 21 20 18 15 13 10 7 10 14 17 17 17 16 14 12 13 16 20 23 24 23 21 22 26 26 28 30 29 24 18 15 18 21 25 27 28 28 28 28 28 28 28 28 27 27 26 26 25 25 25 24 23 22 22 21 20 20 19 19 18 17 16 15 13 12 10 8 7 5 4 2
27 28 28 28 29 30 31 31 31 30 29 27 26 25 24 23 22 20 16 15 13 10 10 14 17 18 19 13 7 3 4 11 18 21 23 23 23 24 26 25 26 27 28 24 13 5 6 11 18 23 25 26 27 27 27 26 26 27 27 27 26 25 25 25 24 23 23 22 21 20 20 19 18 18 17 16 15 13 12 10 9 8 7 6 4 3
25 25 26 26 27 29 31 31 32 32 31 29 28 28 27 26 25 23 20 18 16 14 12 13 14 16 16 13 8 5 4 11 17 20 21 22 23 25 27 26 25 24 24 24 20 13 6 5 11 19 24 25 25 24 24 24 24 25 26 26 26 25 24 24 24 23 22 21 20 19 18 18 17 16 16 14 13 12 10 9 8 8 8 7 5 4
24 24 24 25 26 28 29 30 31 31 31 31 31 31 29 28 27 26 24 22 19 17 15 13 12 12 14 15 13 10 10 12 16 19 21 22 22 23 24 25 24 22 22 22 22 21 16 12 13 17 21 23 23 23 23 23 23 24 25 25 25 24 23 23 23 23 22 21 19 18 17 16 15 15 14 13 12 10 9 8 7 7 7 7 6 4
23 24 24 25 25 26 28 29 29 30 30 30 31 31 30 30 29 29 27 26 23 20 18 15 14 14 15 15 15 14 13 12 15 18 21 21 22 22 23 24 24 23 22 21 21 22 20 19 18 17 17 20 22 22 22 22 22 23 24 24 24 24 23 23 23 22 21 20 19 17 16 14 14 13 12 11 10 9 7 6 6 5 5 5 5 5
23 23 24 24 24 24 25 26 27 27 28 28 29 29 30 30 30 29 29 28 27 25 22 19 17 16 16 16 14 13 12 11 14 17 20 20 22 23 23 22 23 24 23 22 22 21 19 19 20 19 17 17 18 20 20 20 21 22 23 24 24 23 23 23 22 22 21 19 18 16 14 13 12 11 10 9 8 7 6 5 5 4 4 4 4 5
21 22 22 22 22 22 23 24 25 25 26 26 27 28 29 29 29 30 30 30 29 28 27 25 22 20 19 19 17 15 13 11 13 16 18 21 23 23 21 21 24 25 24 23 23 22 20 18 19 19 18 16 14 15 17 19 20 21 21 22 22 22 22 22 21 20 19 18 16 14 13 12 10 9 8 7 6 5 5 4 4 4 3 4 4 5
20 20 21 21 21 21 21 22 23 23 24 24 25 26 27 28 28 29 30 30 31 30 30 29 28 26 24 22 21 18 15 13 14 15 17 21 24 25 23 22 24 26 25 23 23 24 22 19 17 17 16 15 13 13 14 17 18 18 19 19 20 20 19 19 18 17 16 15 14 12 11 9 8 7 6 5 5 4 4 4 4 4 4 4 4 5
19 19 19 20 21 21 20 21 21 22 22 22 22 23 24 25 27 27 28 29 30 30 30 30 30 29 27 26 24 21 19 17 16 16 18 21 24 26 26 24 24 25 25 26 26 26 24 21 17 14 13 13 14 15 16 17 17 16 16 17 17 17 16 15 14 13 13 12 11 10 8 7 6 5 5 4 3 2 2 3 4 4 4 4 4 5
18 18 18 19 20 20 20 20 20 21 21 21 21 21 22 23 25 26 26 27 28 28 29 29 29 29 29 28 27 25 23 21 19 18 20 22 24 25 26 25 24 24 25 26 27 27 26 23 20 17 15 14 14 15 16 16 16 16 16 16 15 14 13 13 12 11 11 11 10 9 8 6 5 5 5 4 4 3 1 1 2 3 3 3 3 4
17 17 17 18 18 18 18 19 19 19 20 20 20 21 21 22 23 24 25 25 25 26 26 27 28 29 30 30 30 29 27 25 23 22 22 23 23 24 25 24 24 24 25 25 25 24 23 21 20 20 20 18 17 16 16 15 15 16 17 15 13 12 12 12 12 11 11 10 10 10 9 8 7 7 6 6 6 5 5 3 2 3 2 1 1 1
17 16 17 17 17 17 18 18 18 18 19 20 21 22 22 22 21 21 23 23 24 24 24 24 26 28 30 31 31 31 30 28 27 25 24 22 22 22 23 23 24 24 25 25 24 23 21 20 19 19 19 19 19 18 16 15 15 16 15 13 12 13 13 13 12 11 11 11 10 10 10 9 8 8 7 7 7 7 7 6 5 4 4 3 3 3
17 16 16 16 16 16 17 17 18 19 19 20 21 22 23 22 21 20 20 21 22 22 22 22 22 23 25 28 30 31 31 30 29 27 25 24 23 23 23 23 23 24 25 25 24 23 22 21 20 19 19 20 19 18 16 15 15 14 13 14 14 14 13 11 11 11 11 11 11 10 10 9 8 8 7 7 7 7 7 6 6 5 5 5 5 5
16 16 16 16 16 16 17 18 18 19 20 21 22 22 22 21 20 19 19 19 20 20 20 19 19 19 20 22 25 27 29 30 29 28 27 26 25 24 24 24 24 25 26 26 25 24 23 22 21 19 19 20 19 18 17 16 15 14 14 15 15 13 9 9 10 10 10 10 10 10 10 9 8 7 7 6 5 4 4 5 5 5 5 4 4 5
15 16 16 16 17 17 18 18 19 19 20 21 21 21 21 22 21 19 18 18 18 19 18 18 18 18 19 19 20 22 24 27 28 28 28 27 26 25 25 25 25 25 26 26 25 24 23 23 21 20 20 20 19 18 17 16 15 14 14 13 12 10 9 10 11 11 10 10 10 10 9 9 8 7 5 4 3 2 2 3 3 3 4 4 4 4
15 16 16 17 17 17 18 18 18 19 19 20 21 21 21 21 21 20 19 18 18 19 19 18 17 17 17 18 18 19 21 23 25 26 27 26 26 26 26 26 25 25 26 25 25 24 23 22 21 20 20 20 18 17 16 15 15 14 12 11 11 11 12 12 12 11 10 9 8 8 8 8 7 5 4 3 3 2 2 2 2 2 3 4 4 4
15 16 16 16 17 17 17 17 17 18 18 19 20 20 21 21 20 19 19 18 18 18 19 19 18 17 16 16 17 18 19 20 22 23 24 25 25 25 26 26 26 26 26 26 25 24 23 21 20 20 20 19 17 16 15 15 14 13 12 12 13 13 13 12 11 10 9 8 7 6 6 5 5 5 4 4 3 3 3 3 3 4 4 4 5 5
16 16 16 16 16 17 17 17 17 17 18 18 19 19 20 20 20 19 19 18 18 18 18 19 19 19 17 17 17 17 17 18 18 20 21 22 23 24 24 25 25 26 26 26 25 24 23 21 19 18 18 17 16 15 14 13 13 12 11 11 12 12 12 11 10 9 8 7 7 6 5 5 5 4 3 3 3 3 3 3 4 4 5 5 6 6
15 15 15 15 16 16 17 17 17 17 17 17 18 18 19 19 19 18 18 18 17 17 17 18 18 18 18 17 17 17 16 16 17 17 18 18 19 20 21 22 23 25 25 26 26 25 24 22 20 18 17 16 15 14 13 13 12 11 10 10 10 10 10 10 9 8 7 6 5 5 5 6 5 4 3 3 2 2 3 3 4 4 5 6 6 6
14 14 14 15 15 15 15 16 16 16 16 16 16 17 18 18 18 18 17 17 17 17 17 17 17 16 16 16 16 16 16 16 16 16 16 16 16 16 17 18 20 21 22 23 24 24 24 24 22 20 18 16 14 13 12 12 11 10 10 9 9 10 10 9 8 7 5 4 4 4 4 4 4 3 3 2 2 2 3 3 4 4 4 5 5 6
14 14 14 14 14 15 15 15 15 15 15 15 15 16 17 18 18 18 17 16 16 16 16 16 16 15 15 15 15 15 15 15 15 15 15 14 14 13 13 13 15 16 17 18 19 20 21 21 21 21 19 17 14 12 11 11 10 10 9 9 9 9 9 9 8 6 5 4 3 3 2 2 2 2 2 2 2 2 3 3 3 3 3 4 4 5
14 14 14 14 14 14 14 14 14 14 14 14 14 15 15 16 17 17 17 16 16 16 15 15 15 15 14 14 14 14 14 14 14 14 14 13 12 11 10 10 11 11 12 12 12 12 13 13 14 15 17 16 15 12 10 9 9 9 9 9 9 9 9 8 7 6 5 5 4 3 2 2 1 1 1 1 1 2 2 3 2 2 2 3 3 4
Wind_Direction
265 271 278 291 296 285 262 235 210 193 188 191 198 205 207 207 209 210 210 211 210 210 211 213 215 216 217 217 217 217 217 216 216 215 214 214 215 215 216 217 216 214 213 213 214 215 217 216 213 207 201 194 187 181 177 175 174 172 168 164 162 161 159 157 156 156 157 158 160 162 163 163 164 165 167 169 171 174 175 176 176 174 172 169 166 161
259 262 264 269 279 282 272 253 227 201 188 189 196 202 204 204 206 209 210 210 208 205 203 204 205 206 207 207 208 210 211 211 210 209 209 209 210 211 212 214 214 214 213 212 212 214 215 214 209 202 194 187 181 176 174 170 169 166 158 157 156 155 154 154 155 156 157 158 159 160 160 161 162 163 165 166 168 170 171 172 171 170 167 164 161 157
252 255 256 257 265 274 276 265 245 216 195 192 195 199 202 204 206 208 210 210 208 206 205 206 205 203 201 201 203 205 206 206 205 204 204 206 207 207 209 210 211 211 211 211 211 211 211 207 200 193 187 182 178 173 168 163 160 156 152 152 153 153 153 154 155 156 157 158 158 158 158 159 160 162 163 165 166 167 168 168 166 164 161 159 156 153
243 246 248 248 252 262 272 269 258 234 207 196 194 196 199 202 205 207 207 207 207 210 214 215 211 205 200 197 196 195 195 193 192 193 195 197 198 199 200 201 203 205 206 207 208 207 203 197 190 185 182 179 175 168 161 157 154 152 152 152 153 153 154 154 155 155 156 156 157 157 158 158 160 161 163 164 164 164 164 163 161 158 156 154 151 149
238 238 240 239 239 250 265 269 264 249 221 199 192 193 196 200 202 202 201 200 203 209 215 213 205 197 190 183 177 173 174 174 175 177 179 180 181 182 183 186 189 192 196 199 201 199 193 186 182 180 178 174 169 162 157 154 152 152 153 154 154 154 154 154 154 154 155 156 156 156 157 158 160 161 162 162 161 160 159 157 154 152 151 149 147 145
236 236 237 235 233 240 256 265 265 256 237 212 196 191 191 193 196 194 190 189 193 197 194 187 178 172 167 162 157 154 153 153 155 159 161 161 162 163 166 168 172 177 183 187 189 189 186 183 179 176 173 168 162 158 155 153 152 153 154 155 156 155 155 155 154 154 155 156 156 156 157 158 160 160 160 158 156 154 152 150 148 146 145 143 142 141
236 234 233 234 235 237 245 257 261 256 243 227 207 193 186 186 186 184 179 180 183 180 166 155 149 147 146 145 143 141 139 139 139 141 144 144 145 147 148 151 155 161 166 170 173 175 176 176 177 174 167 162 158 156 154 153 153 154 155 156 156 156 155 155 154 153 154 155 155 156 157 158 158 158 156 154 151 149 147 145 143 142 141 139 139 138
237 231 228 231 233 235 238 247 253 252 243 233 217 200 188 183 179 175 170 172 174 168 154 143 138 137 138 139 138 137 137 138 138 139 140 140 138 135 132 133 137 142 147 150 152 154 157 158 162 163 159 155 154 153 153 153 153 154 155 155 155 155 155 154 153 153 153 154 155 156 156 156 156 154 152 150 148 146 144 143 141 140 139 138 137 136
238 232 225 226 229 230 232 239 245 248 244 237 226 211 196 185 179 175 169 170 170 165 153 142 137 138 140 142 142 141 142 143 144 145 145 145 144 139 133 128 126 127 130 133 136 138 141 143 145 147 148 148 149 150 150 151 152 152 152 153 153 154 154 154 153 152 152 153 154 154 154 153 152 151 149 147 146 144 143 142 141 140 139 138 137 136
240 236 230 228 227 227 226 230 237 242 243 239 232 221 205 189 180 176 175 173 172 168 158 146 140 140 142 144 145 146 147 149 150 151 150 149 148 145 141 136 131 128 126 125 126 129 131 133 135 138 141 143 145 147 148 149 150 150 150 151 151 152 153 153 152 152 152 152 153 153 152 151 150 148 147 146 145 144 143 142 141 140 139 138 137 136
238 237 234 230 228 226 225 223 226 232 236 236 233 228 216 199 184 176 174 174 172 168 162 152 145 143 143 142 143 144 145 148 152 155 156 154 151 147 144 141 141 140 136 132 130 129 130 131 133 136 139 142 144 146 148 149 149 149 150 150 151 151 152 152 151 151 150 151 151 150 150 149 148 147 146 145 145 144 143 142 141 140 139 137 136 135
234 233 232 229 227 226 223 218 215 217 222 225 227 227 221 208 195 182 173 168 165 163 159 153 149 148 147 144 141 140 140 142 146 151 156 157 156 152 147 144 144 144 143 142 143 143 141 141 141 142 143 145 146 147 148 149 149 150 150 151 151 151 152 151 151 150 150 150 149 149 148 147 147 146 145 145 144 143 143 142 141 140 139 137 136 135
232 229 228 227 226 223 219 210 202 199 202 209 217 220 215 209 203 194 182 167 160 157 155 150 149 150 151 147 144 141 139 138 139 143 146 150 152 153 150 147 145 144 145 146 149 153 154 154 154 153 154 153 153 152 151 150 151 151 151 151 151 151 151 150 149 149 149 149 148 147 147 146 146 145 145 144 143 143 142 142 141 140 139 138 137 135
234 229 227 228 226 221 214 205 199 196 195 201 209 216 214 209 205 201 194 181 167 157 152 148 147 148 150 150 149 146 142 137 135 135 136 140 145 148 148 147 147 148 148 150 153 156 158 158 158 159 161 162 161 160 157 155 154 154 153 152 151 151 150 148 147 147 146 146 145 145 145 144 144 144 143 143 143 142 142 142 142 141 141 140 139 137
239 231 229 229 225 219 211 205 201 199 196 196 202 210 213 207 204 203 198 186 171 158 148 144 143 144 147 152 153 151 147 141 137 134 133 133 136 140 142 142 144 147 150 153 156 158 160 159 158 160 163 164 164 164 163 161 160 159 158 157 156 154 153 152 151 149 148 146 145 144 143 143 143 143 143 143 143 143 143 143 143 143 143 142 141 140
257 241 232 229 224 216 207 200 198 197 194 192 196 201 204 203 200 197 193 183 170 155 144 140 139 141 146 151 153 152 149 144 140 138 135 132 133 135 137 136 137 141 146 149 153 156 158 159 159 160 162 164 165 165 165 165 165 164 164 163 162 161 160 158 157 157 157 156 154 152 151 149 148 147 146 146 145 145 145 145 145 145 144 144 143 142
351 315 286 249 232 224 218 211 201 192 189 188 191 196 201 202 200 196 190 175 162 152 148 145 142 139 144 148 150 151 150 147 143 139 137 136 137 138 137 134 132 133 138 142 146 149 152 154 156 158 160 162 164 165 165 165 165 166 165 165 164 163 162 162 161 160 160 161 160 158 156 155 153 152 150 149 148 147 147 147 147 147 147 146 145 144
28 17 5 354 322 265 243 236 219 205 194 188 189 193 200 204 204 199 189 172 159 154 153 151 149 147 146 150 151 151 150 147 143 139 136 136 139 142 142 138 134 132 133 138 142 144 146 147 149 152 155 159 162 163 164 164 164 164 164 163 163 162 161 160 159 159 159 158 157 156 155 154 154 153 152 151 151 150 150 151 151 151 151 150 149 148
34 27 17 7 3 5 8 18 31 108 190 188 189 194 201 207 206 201 191 176 163 158 155 153 151 150 149 150 150 149 148 145 141 137 133 133 137 142 144 141 136 132 133 137 140 142 143 144 146 150 153 156 159 160 162 162 162 162 162 161 161 160 159 158 158 157 157 156 155 154 153 153 153 153 153 153 153 154 154 155 155 155 155 155 153 152
31 27 19 5 353 350 356 6 15 24 40 141 181 195 204 209 210 204 192 182 171 162 157 154 152 151 148 146 145 145 145 143 139 134 129 125 129 136 141 141 136 133 137 139 142 143 142 143 148 152 155 156 157 159 159 160 160 160 160 159 159 158 158 157 156 156 155 154 154 154 154 154 154 155 155 155 156 157 158 159 159 159 159 158 156 155
28 24 19 10 358 347 346 349 357 11 36 95 146 185 205 208 210 206 192 182 173 166 159 156 153 150 146 144 142 141 142 141 137 131 126 120 121 127 135 137 136 135 136 137 139 140 141 144 149 154 157 158 159 159 159 159 159 159 159 159 158 158 157 156 156 155 155 155 156 156 156 157 157 158 158 159 159 160 161 162 162 162 161 160 158 155
27 21 19 15 6 352 342 346 360 21 52 82 88 90 185 206 206 200 187 177 171 166 160 155 150 146 144 143 141 140 141 141 137 130 125 119 116 123 131 134 132 129 126 128 130 134 139 144 148 153 157 159 160 159 159 160 160 160 160 159 159 158 158 157 157 158 158 158 159 159 159 160 160 160 161 161 162 163 164 164 164 163 162 160 158 156
28 23 21 19 12 0 353 3 20 37 60 76 74 64 58 264 222 201 183 169 159 153 145 138 136 138 140 140 137 136 138 139 137 132 127 122 117 121 128 130 126 119 115 119 125 132 139 142 145 150 155 158 159 158 158 160 160 160 160 160 159 159 159 160 160 160 160 160 160 160 161 161 161 161 162 162 163 164 165 165 165 164 163 161 159 157
29 26 24 21 17 13 15 25 34 42 53 62 68 68 64 61 118 162 160 153 145 136 129 126 126 128 131 131 129 129 133 136 136 132 128 124 120 121 125 126 120 112 110 115 122 128 133 136 140 146 151 155 157 157 157 159 159 159 158 159 159 160 161 161 161 161 161 160 160 160 160 160 161 161 162 163 163 164 165 165 165 164 163 161 160 159
28 27 26 24 22 24 30 37 41 43 46 53 61 67 71 84 113 133 139 140 138 133 128 124 121 119 120 119 117 120 128 133 135 133 128 124 121 121 126 127 120 110 107 112 120 126 129 131 135 140 145 150 153 155 155 156 156 156 156 157 159 160 160 161 160 160 160 159 159 159 159 159 160 160 162 163 164 165 165 165 165 164 163 162 162 162
30 29 27 27 28 31 36 41 44 46 46 50 57 67 78 88 103 115 121 127 132 132 129 125 121 120 119 115 112 116 124 129 132 133 131 129 125 123 125 126 120 110 106 109 115 120 122 124 127 133 138 143 148 151 152 152 152 153 154 155 156 157 158 158 158 158 157 157 157 157 157 158 159 161 163 164 165 166 166 166 165 164 164 164 164 165
32 30 29 28 30 34 38 43 45 47 48 52 59 70 81 87 86 83 81 97 123 133 132 127 123 120 118 113 112 118 125 128 131 133 135 133 130 125 124 123 119 112 105 105 110 114 115 115 117 122 129 135 139 143 145 146 146 147 150 151 152 153 155 155 155 154 154 154 155 156 157 158 160 162 164 165 166 166 166 166 165 165 166 167 168 169
33 31 29 29 31 35 40 45 47 48 48 52 59 69 78 78 66 43 17 17 82 130 133 130 128 127 123 117 114 118 125 127 131 136 137 135 131 128 127 125 120 114 108 104 107 110 110 108 109 112 118 125 130 134 137 139 140 142 144 146 149 150 152 152 152 151 152 152 154 155 157 159 161 163 165 165 165 165 165 165 165 167 169 171 173 175
34 32 31 30 32 36 41 45 48 50 50 53 58 63 67 65 52 33 14 15 38 107 129 129 128 128 125 117 111 112 117 124 131 136 137 134 131 131 132 128 124 120 115 111 106 104 103 103 105 108 112 119 123 126 129 131 133 135 137 140 143 146 147 148 148 149 149 151 152 154 156 159 161 162 164 164 164 163 164 164 165 166 167 168 170 174
32 31 31 30 32 35 40 43 46 49 52 55 57 59 59 57 49 39 32 34 40 70 116 121 124 125 122 117 110 104 107 119 130 135 137 137 136 136 135 133 131 129 127 122 112 97 94 97 103 108 112 116 119 120 122 125 127 128 129 132 134 137 140 142 144 145 146 148 150 153 155 158 160 161 162 162 162 162 162 163 162 159 154 147 141 131
28 28 27 28 30 33 37 41 44 48 51 54 55 55 55 53 50 46 45 45 44 56 94 112 121 126 128 127 121 100 101 123 131 136 138 142 143 142 140 138 138 137 137 134 132 117 96 94 102 109 114 116 116 116 118 120 122 124 125 126 126 128 133 137 139 141 143 145 148 151 154 157 159 160 160 160 160 160 160 159 155 148 137 128 126 127
27 27 26 26 28 32 36 39 42 45 48 49 50 50 51 51 49 48 48 51 53 59 75 100 117 125 127 129 123 109 114 131 136 138 139 144 146 145 143 142 142 142 142 140 139 138 131 119 111 111 114 114 115 116 118 120 122 124 125 125 124 125 130 135 137 138 139 142 146 149 153 155 157 159 159 159 159 158 157 155 150 143 135 133 139 151
27 27 26 27 29 32 35 38 40 43 44 43 43 44 46 48 48 49 50 54 61 70 77 86 96 103 106 106 103 101 109 127 136 139 140 144 146 146 145 143 143 142 142 139 137 135 132 134 126 117 114 115 116 118 120 123 125 127 128 128 126 127 131 135 137 138 139 142 145 148 151 154 156 157 158 158 157 157 155 153 151 147 145 147 153 162
27 26 26 26 28 31 34 36 38 40 40 40 40 40 42 44 46 48 51 55 61 70 78 79 79 83 93 96 95 95 101 117 132 138 140 143 147 148 145 144 143 141 137 133 130 128 127 128 129 125 118 116 117 119 121 123 126 128 130 130 130 131 134 137 139 140 142 144 146 148 150 153 155 156 158 158 159 160 160 160 160 161 163 166 168 169
26 25 25 25 26 28 30 33 35 37 38 39 39 39 40 42 44 47 50 54 58 64 71 77 83 89 96 101 99 93 90 109 128 135 137 140 146 148 145 144 144 142 138 134 131 129 128 127 130 130 125 119 118 119 122 124 127 130 131 133 133 135 138 141 142 143 144 146 146 147 150 153 155 157 158 160 163 165 168 170 172 176 183 190 195 194
26 25 23 23 23 25 26 29 31 33 35 36 37 39 40 42 44 47 50 54 57 61 66 72 80 89 99 105 102 94 91 109 127 135 136 139 143 145 143 143 143 142 138 136 136 136 134 131 131 131 129 126 122 122 124 128 130 132 133 135 136 138 140 143 145 145 146 145 145 147 150 154 156 157 157 160 165 170 175 180 184 190 200 210 218 221
27 25 23 22 22 22 23 25 27 29 30 32 35 37 39 41 43 46 49 53 57 61 65 68 73 79 86 93 95 95 100 116 131 137 138 140 142 142 139 139 141 141 140 138 138 138 137 134 132 132 131 132 132 131 129 129 130 131 132 135 137 139 141 143 146 147 147 146 146 148 151 155 157 157 157 160 167 178 189 198 204 211 219 226 232 234
28 26 23 22 21 21 21 22 24 26 27 29 32 35 39 41 43 45 48 51 54 58 62 65 68 71 75 79 83 89 99 112 126 136 139 140 141 140 137 136 138 140 142 142 142 142 140 139 138 139 138 136 136 136 135 132 130 129 131 135 138 139 139 141 143 146 147 146 147 148 149 152 152 150 147 149 156 173 207 228 231 232 235 242 246 245
29 26 24 22 21 20 20 20 21 23 26 29 32 36 39 42 44 46 47 49 51 55 58 62 65 67 70 74 78 84 91 98 109 122 132 136 137 137 135 133 133 137 141 143 144 144 145 145 147 147 145 140 137 136 137 135 133 131 132 132 131 131 131 133 135 137 140 142 141 140 139 137 132 126 122 117 115 118 136 233 253 254 257 271 283 284
28 26 25 23 22 21 21 21 21 23 26 30 34 37 40 41 43 45 46 48 49 52 55 59 62 65 68 71 74 78 83 89 97 106 116 123 128 131 131 128 128 132 137 140 142 143 144 144 145 146 146 144 142 140 140 137 136 136 134 129 126 125 126 127 128 129 131 133 133 133 133 133 130 128 128 130 137 145 154 171 208 238 249 242 224 260
26 25 23 21 21 22 23 23 24 26 29 32 35 36 38 39 39 40 42 45 46 48 51 54 58 61 64 67 69 72 75 79 84 91 99 106 112 119 125 123 123 126 130 132 134 135 136 135 136 137 140 141 142 141 138 138 139 139 136 132 131 130 129 127 126 126 127 129 131 133 134 134 136 139 144 151 162 171 180 189 203 225 242 244 223 204
24 22 20 19 19 21 22 25 28 30 33 34 35 36 36 37 37 38 40 41 41 42 44 47 51 55 57 59 62 65 68 72 76 81 87 94 101 108 111 113 116 120 123 123 122 123 125 125 127 130 134 136 136 135 133 135 136 137 135 133 132 130 127 126 127 128 129 130 132 134 134 134 138 146 156 166 180 194 207 216 227 240 250 253 248 237
20 19 18 18 19 21 23 26 28 30 33 35 35 35 35 35 37 39 41 41 41 40 41 43 48 52 53 53 55 57 61 66 71 76 80 85 90 95 100 104 108 113 116 114 111 109 111 114 116 120 127 131 130 129 129 129 129 130 131 134 132 129 126 131 134 133 132 133 135 137 138 141 147 156 166 177 194 216 236 249 256 260 261 258 256 252
17 17 17 19 20 22 24 26 28 29 31 33 33 32 33 34 37 39 41 42 42 41 41 42 46 50 52 52 52 51 53 59 65 70 74 78 83 89 93 97 102 107 111 109 106 104 105 105 107 111 119 122 122 122 122 122 123 124 126 129 132 133 136 139 140 139 138 140 144 148 152 156 161 166 173 180 196 224 253 266 276 276 273 271 267 262
17 18 18 20 21 23 24 24 26 28 30 32 31 31 31 32 35 38 40 42 42 42 42 42 45 48 49 49 50 50 50 53 57 62 67 72 78 84 88 91 95 99 102 103 104 104 103 101 103 108 113 115 115 115 116 117 118 119 119 118 118 119 124 130 136 137 136 141 148 157 165 169 166 160 152 154 163 180 204 221 232 247 263 273 271 267
19 19 19 20 22 23 23 24 25 28 30 31 30 30 30 31 33 36 39 41 43 43 43 45 47 48 47 47 48 49 50 49 49 52 57 63 70 77 82 86 90 92 94 96 98 100 101 101 103 107 109 108 106 107 112 115 116 115 114 112 112 112 115 119 124 127 130 135 142 152 162 161 150 139 138 149 165 181 200 215 222 227 239 251 259 263
20 20 20 21 22 23 23 24 26 28 30 31 30 29 29 30 33 35 38 40 43 44 45 47 49 50 49 47 48 50 50 49 48 48 50 55 61 68 75 80 85 89 91 92 92 92 92 94 99 104 105 104 102 102 106 110 113 114 115 116 115 115 115 117 119 122 125 128 132 135 134 131 126 128 141 161 178 194 210 224 232 238 243 251 258 263
22 21 21 22 22 23 24 24 26 28 29 30 30 30 30 32 33 35 37 39 42 45 47 48 50 51 50 49 49 50 53 53 52 51 51 52 56 62 70 76 82 86 89 90 90 89 88 88 89 91 95 99 102 103 104 107 110 114 118 120 120 118 117 118 120 122 125 127 131 132 128 123 122 130 149 168 188 208 220 229 238 246 253 259 263 264
23 23 23 23 24 24 24 24 26 27 28 29 30 31 32 34 36 37 38 40 42 45 47 49 51 52 52 50 49 50 52 54 55 54 53 53 56 61 67 73 79 83 86 87 88 88 88 86 83 81 82 87 94 99 103 104 108 112 115 118 119 119 119 119 119 120 120 121 128 137 139 138 146 161 172 179 204 229 233 239 246 252 257 262 266 270
24 24 24 25 26 26 25 25 25 26 27 29 30 31 33 35 36 38 40 42 44 46 47 50 52 53 53 51 49 49 51 53 54 53 51 52 56 61 67 73 79 82 83 83 84 84 83 80 78 76 75 75 80 89 98 103 106 107 107 109 112 114 116 116 117 117 112 105 105 116 129 137 153 181 199 207 230 251 252 252 254 254 255 259 268 278
23 24 25 26 26 26 26 26 27 27 28 29 31 33 34 35 36 38 39 41 43 45 47 49 51 53 54 52 50 50 51 53 52 50 48 48 51 57 65 75 83 86 87 86 86 85 81 76 72 68 66 68 71 78 90 101 106 106 101 102 105 108 110 113 116 115 111 106 104 104 105 109 116 139 178 209 243 263 266 264 256 250 246 255 267 279
Height
705 704 704 704 704 704 703 700 699 699 700 701 703 704 706 707 707 708 708 709 710 710 711 711 712 712 713 714 716 717 718 720 721 722 723 724 725 726 728 729 730 732 733 735 736 738 739 741 742 744 747 749 750 752 754 756 757 759 761 763 765 768 770 773 775 777 780 782 783 785 788 790 792 794 797 798 800 802 805 807 809 810 811 812 813 814
704 704 703 703 704 705 704 702 699 698 699 700 702 703 704 705 706 706 707 708 708 709 709 710 711 712 712 713 715 716 718 719 720 721 722 723 724 725 726 727 728 730 732 733 735 737 739 740 742 744 746 748 750 752 754 756 758 759 762 764 766 768 770 773 774 777 779 782 784 785 787 789 792 794 796 798 799 801 803 805 807 808 809 811 813 814
703 703 703 703 703 704 704 703 700 698 699 700 701 702 703 704 705 705 706 706 707 708 708 709 710 711 712 713 714 715 717 718 719 720 721 722 723 723 724 726 727 728 730 732 734 736 737 739 741 743 746 748 750 752 754 756 758 760 762 765 767 769 770 772 774 776 778 781 783 786 787 789 792 794 796 797 799 800 802 804 805 807 808 810 812 813
703 702 702 702 702 703 703 703 701 700 699 699 700 702 703 703 704 704 705 705 706 707 708 708 709 710 711 713 714 715 716 716 718 719 720 721 722 723 723 724 726 727 728 730 732 734 736 738 740 743 745 748 750 752 754 756 758 760 763 765 768 769 771 773 774 776 778 781 783 785 787 789 792 794 796 797 798 799 802 803 805 806 808 809 811 813
701 701 701 701 701 701 702 702 702 701 699 698 699 701 702 703 703 704 704 705 706 707 708 708 708 709 710 712 714 715 715 716 717 718 719 720 721 722 723 724 725 726 727 729 730 732 735 737 740 742 745 748 750 752 754 756 758 761 763 766 768 770 771 773 774 776 779 781 783 785 787 789 792 794 795 796 798 799 801 803 804 806 807 809 811 812
699 700 701 701 700 700 701 702 702 701 700 699 699 699 701 702 703 703 703 704 706 707 708 708 708 708 709 711 713 714 715 716 717 718 719 720 721 722 723 723 724 725 726 728 729 732 734 737 739 742 745 748 750 753 754 757 759 762 764 767 769 770 772 773 774 776 778 781 783 785 787 790 792 794 795 796 798 799 801 803 804 806 808 809 811 812
698 699 700 700 700 699 700 701 702 702 701 700 699 699 700 701 703 703 703 704 706 707 708 708 708 708 709 711 712 713 715 716 718 720 721 722 723 723 723 724 725 726 727 728 730 732 734 737 739 743 746 748 750 753 755 757 760 763 765 767 769 771 772 773 775 776 778 781 783 785 787 790 792 794 795 796 798 800 802 803 805 806 808 809 811 813
697 698 698 699 699 699 699 700 701 701 702 701 700 699 700 701 702 703 703 705 706 707 708 707 708 709 710 712 713 714 716 718 719 721 723 724 724 725 725 726 726 727 728 730 731 733 735 737 740 743 746 748 750 753 755 758 761 764 766 768 770 772 773 774 775 777 779 781 783 785 788 790 793 794 795 797 799 800 802 804 805 807 809 810 811 813
696 696 697 698 698 699 698 698 699 700 701 701 700 699 699 700 702 703 704 705 707 707 707 707 708 709 711 713 713 715 716 719 721 723 724 725 726 727 727 728 728 729 731 732 733 734 736 738 741 744 747 749 752 754 757 760 762 765 767 768 771 773 773 775 776 777 779 782 784 787 789 791 793 795 796 798 799 801 802 804 806 807 809 810 811 813
695 695 695 696 697 698 698 697 698 698 699 700 700 699 699 699 701 702 703 705 706 707 707 707 708 709 711 713 714 715 717 720 723 724 724 726 727 728 728 728 730 732 733 735 736 738 739 740 743 745 748 751 753 756 758 761 763 765 767 770 772 773 774 775 777 778 781 783 786 788 790 792 794 795 797 799 800 801 803 804 806 808 809 810 812 813
695 694 694 695 695 696 696 695 696 697 698 699 699 700 700 699 699 700 702 703 705 706 707 708 708 709 710 712 714 716 718 721 723 724 725 727 728 728 728 730 731 733 734 737 739 741 742 744 746 748 751 753 755 757 759 762 764 766 768 770 773 774 775 777 778 779 782 785 787 790 792 794 795 797 798 799 800 802 804 805 806 807 809 810 812 813
694 693 693 693 694 694 694 694 694 695 696 698 699 700 700 699 699 698 699 701 703 705 706 708 708 709 710 712 713 715 718 720 722 724 726 727 728 729 730 731 733 734 736 738 741 743 745 746 748 751 753 754 756 758 760 762 764 766 768 771 773 774 776 778 779 781 783 786 789 791 793 794 796 797 799 800 801 803 804 805 806 807 809 810 811 813
693 693 693 692 692 693 693 693 693 694 695 696 697 698 698 699 699 699 699 699 701 703 705 707 709 711 712 712 713 715 717 719 721 723 725 727 728 729 730 732 734 735 738 740 742 744 746 748 749 752 754 755 757 759 761 763 765 767 769 771 773 775 777 778 780 783 785 788 790 792 794 795 797 798 799 800 802 803 804 805 806 808 809 810 811 812
691 691 691 691 691 691 691 691 691 692 693 693 695 696 697 698 699 700 700 700 701 702 704 706 709 711 713 714 714 715 717 719 721 723 725 727 729 730 731 733 734 736 738 741 743 746 748 749 751 752 754 755 757 759 762 764 766 768 770 772 773 775 777 779 782 784 787 789 791 793 794 796 798 799 800 801 802 803 804 805 806 808 809 809 810 811
690 690 690 690 690 689 689 689 689 690 690 691 693 695 697 698 699 700 701 701 702 703 704 706 708 711 713 714 715 716 717 719 721 723 725 727 729 731 732 734 735 738 740 743 745 747 748 750 752 753 754 755 757 759 761 764 766 768 770 772 773 775 777 778 781 784 787 790 792 794 796 797 798 799 800 801 803 804 804 805 807 808 809 809 810 811
689 689 688 688 688 688 687 687 688 688 689 690 691 693 696 697 698 698 699 700 701 702 704 706 708 711 713 714 716 717 718 719 721 723 725 727 729 731 733 734 736 739 741 743 746 747 749 751 753 754 755 756 757 759 761 763 765 768 769 771 773 774 776 778 780 783 786 789 792 794 796 798 799 800 801 802 803 804 804 805 807 808 809 810 810 811
690 689 688 687 687 687 686 687 687 687 688 689 690 692 693 695 697 697 698 698 699 701 702 704 706 710 713 715 716 717 718 719 721 723 725 728 730 732 733 735 737 739 742 744 746 748 749 751 753 754 755 757 758 759 761 763 765 767 769 771 772 774 776 778 780 783 786 788 791 793 795 797 799 799 801 802 802 803 804 805 807 808 809 810 811 811
693 692 691 690 689 688 689 688 687 687 688 689 689 691 693 695 696 697 698 698 698 699 701 702 704 706 709 713 715 716 718 719 721 723 726 729 731 733 734 736 738 740 742 744 746 748 750 751 752 754 755 757 758 760 762 764 766 768 770 771 773 774 776 778 781 783 786 788 790 793 794 796 798 799 800 801 802 803 804 805 807 808 809 810 811 812
694 694 694 693 693 692 691 689 688 688 688 688 689 690 693 695 696 696 697 697 697 697 698 700 703 704 707 710 712 714 717 718 721 723 726 729 732 734 735 737 739 741 743 745 748 749 751 752 753 754 755 757 759 761 763 764 767 768 770 772 773 775 777 779 781 784 786 788 790 792 793 795 797 798 799 800 802 803 804 805 807 808 809 810 811 811
697 696 696 696 695 694 693 692 691 689 688 687 688 690 692 693 694 695 696 697 697 696 697 698 701 703 706 709 711 713 716 718 720 723 726 729 732 734 736 738 740 743 745 747 749 751 752 753 754 755 757 758 760 762 763 765 767 769 771 773 774 776 778 780 782 784 786 788 790 792 793 795 796 798 799 800 802 803 804 806 807 808 809 810 810 811
699 698 698 698 697 696 695 694 692 689 688 687 688 689 691 693 693 694 695 696 696 696 696 697 699 702 705 708 711 713 715 716 719 722 726 729 732 734 737 739 741 743 746 748 750 751 752 753 754 756 758 760 762 763 764 766 768 769 771 773 775 777 779 781 783 785 787 788 790 792 794 795 796 798 799 800 802 803 804 806 807 808 809 809 810 811
701 701 700 699 699 699 698 695 693 689 687 686 687 689 691 692 693 693 694 695 695 695 695 696 698 702 704 707 709 711 714 716 717 720 724 729 733 735 737 739 741 743 746 748 750 751 752 753 755 757 759 761 763 764 765 767 768 770 772 774 776 778 780 782 783 785 787 789 790 792 794 795 797 798 799 800 801 803 804 805 806 807 808 809 810 811
703 703 702 701 701 701 699 696 692 689 687 686 688 689 691 691 692 692 693 694 694 694 695 696 698 701 704 707 709 711 714 716 717 719 723 728 733 735 737 738 740 743 746 748 750 751 753 754 756 758 761 763 764 765 766 767 768 770 772 774 776 778 780 782 784 786 788 789 791 792 794 795 797 798 799 800 801 802 804 804 806 807 808 809 809 810
705 705 704 703 703 702 700 696 692 688 687 687 688 690 691 691 691 691 692 693 693 694 695 696 698 702 705 708 709 712 714 716 718 719 722 727 732 735 737 738 740 743 745 748 749 751 753 755 757 759 762 764 765 766 767 768 769 771 773 775 777 779 781 783 785 786 788 789 791 792 794 795 796 798 799 800 801 802 803 804 805 806 807 808 809 810
707 706 706 705 704 703 699 694 690 688 688 688 689 690 690 691 691 691 691 692 693 695 696 698 700 703 706 708 710 712 714 717 718 720 722 727 731 735 737 739 741 743 746 748 750 752 754 756 758 761 763 765 767 768 768 769 770 772 774 776 778 780 782 783 785 787 788 789 791 792 794 795 796 797 798 799 800 801 803 804 805 806 807 809 810 811
708 707 706 705 703 700 697 692 690 689 689 690 690 690 691 692 692 692 693 694 695 696 697 699 701 704 706 708 710 713 715 717 719 721 723 726 731 736 739 740 741 743 745 748 750 752 754 757 759 762 764 766 768 769 770 771 772 773 775 777 779 781 783 784 785 787 788 790 791 792 793 794 796 797 798 799 800 801 803 804 805 807 808 809 810 811
708 706 705 704 701 698 695 692 691 691 691 691 692 692 691 692 693 694 696 697 697 697 697 699 702 705 707 709 711 713 715 718 721 723 724 726 730 736 739 741 742 743 745 748 750 753 755 758 760 762 764 766 768 770 771 772 773 775 777 778 780 782 783 784 786 787 788 789 791 792 793 794 795 797 798 799 800 802 803 804 806 807 808 809 810 811
708 707 706 704 702 699 697 694 693 693 693 693 693 693 693 693 695 697 699 699 699 698 697 698 701 704 706 709 711 713 716 718 722 724 726 728 731 736 739 741 741 742 744 748 751 754 756 758 761 763 764 766 768 770 772 773 775 776 778 779 781 782 783 785 786 787 788 789 790 792 793 794 795 797 798 799 801 802 804 805 806 807 808 809 809 810
710 709 708 706 704 702 699 698 696 696 696 695 695 695 696 697 699 701 702 701 700 700 699 699 700 703 706 708 711 714 717 720 723 725 727 728 732 736 738 740 741 742 744 748 752 755 758 760 762 763 765 767 768 770 772 774 775 777 778 780 781 783 784 785 786 787 788 789 790 792 793 794 795 797 799 800 801 803 804 805 806 807 808 809 809 810
711 711 710 708 707 705 703 701 699 699 699 699 699 699 700 701 702 703 703 702 701 701 700 701 702 703 705 708 712 716 720 722 724 725 727 729 732 735 738 740 741 742 743 747 753 758 761 763 763 764 766 767 768 770 772 773 775 777 778 780 781 783 784 785 786 787 788 789 790 792 793 794 796 798 799 800 802 803 804 805 806 807 808 808 809 810
714 713 713 712 710 708 705 704 703 702 702 702 703 703 703 704 704 705 705 703 703 702 702 703 703 704 705 706 710 716 721 723 725 726 728 729 732 734 736 738 741 742 743 744 749 756 763 765 766 766 767 768 769 770 772 774 775 777 778 779 781 783 784 785 786 787 788 789 791 792 794 795 796 798 799 801 802 803 804 805 806 807 807 808 809 810
718 717 717 715 713 711 709 708 707 706 706 706 707 707 707 707 707 707 707 706 704 703 704 705 706 707 707 707 710 716 721 724 726 727 728 730 732 733 735 737 740 743 744 744 746 750 758 764 767 768 768 768 769 771 773 774 776 777 778 779 781 783 784 785 786 787 788 790 791 793 794 795 797 799 800 801 802 803 804 805 806 806 807 808 809 809
721 720 720 719 717 715 713 712 711 711 711 711 711 711 711 711 710 710 709 708 707 706 707 707 708 709 710 711 714 717 721 723 726 727 728 730 732 734 735 737 740 743 745 747 747 749 753 760 764 767 768 769 771 772 773 775 776 777 778 779 781 783 784 785 786 787 788 790 791 793 794 796 797 799 800 801 802 803 804 805 805 806 807 808 809 809
723 723 723 722 720 718 717 716 716 715 715 715 715 715 714 714 713 713 712 711 710 710 710 710 711 712 713 714 717 720 722 724 726 727 728 729 731 733 735 737 739 742 744 747 750 752 755 759 762 766 769 771 772 773 774 776 777 778 779 779 781 782 784 785 786 787 788 790 792 793 795 796 798 799 800 801 802 803 804 804 805 806 807 807 808 809
726 726 725 724 723 722 721 720 720 719 719 719 718 718 718 718 717 716 715 714 714 713 713 713 714 715 715 717 718 721 723 725 726 727 727 729 731 733 735 737 739 741 743 747 750 754 758 761 763 765 768 771 773 775 776 777 778 778 779 780 781 782 784 785 786 788 789 790 792 793 795 796 797 799 799 800 801 802 803 804 805 806 806 807 808 808
729 728 728 727 727 726 725 725 724 723 723 722 722 722 721 720 720 719 718 718 717 717 716 716 717 718 718 719 720 722 724 726 726 727 728 728 730 732 735 738 739 741 743 746 749 753 758 761 763 765 767 770 773 776 777 778 778 779 780 781 782 783 784 786 787 788 789 791 792 794 795 796 797 798 799 800 801 802 803 804 804 805 806 807 807 808
732 732 731 731 730 729 729 728 728 727 726 726 725 725 724 723 723 722 721 720 720 719 719 719 720 721 722 722 723 724 725 727 728 728 728 729 730 732 734 737 739 741 743 745 748 752 756 760 764 766 768 770 772 775 778 779 779 780 781 782 783 784 785 787 788 789 790 791 792 794 795 796 797 798 799 800 801 801 802 803 804 804 805 806 807 807
736 736 735 734 733 733 732 731 731 730 730 729 728 728 727 726 725 724 724 723 723 722 722 722 723 723 724 724 725 725 727 728 729 730 730 731 732 733 735 737 740 742 743 744 747 750 753 758 762 766 769 771 773 775 777 778 780 781 783 783 784 785 786 788 788 789 790 791 793 794 795 796 797 798 799 800 800 801 802 802 803 804 804 805 806 807
740 739 739 738 737 736 735 734 734 733 733 732 731 731 730 729 728 727 727 726 726 725 725 725 726 726 726 726 727 727 728 729 731 732 733 733 734 735 736 738 741 743 744 746 747 749 752 755 758 762 766 770 773 775 777 778 780 781 783 784 785 786 787 788 789 790 791 792 793 794 795 796 797 798 799 800 800 801 802 802 803 803 804 805 805 806
743 743 742 742 741 740 739 738 737 737 736 735 734 733 732 731 730 730 729 729 729 728 728 728 728 728 728 728 728 729 730 731 732 733 734 735 736 738 738 740 742 743 745 747 749 751 753 755 758 761 764 768 771 774 777 778 780 781 782 784 786 787 788 789 790 790 791 792 793 794 795 796 797 798 799 800 801 801 802 802 803 803 804 804 805 805
745 745 744 744 743 743 742 741 740 739 738 737 736 734 734 733 733 733 733 732 732 732 732 732 731 731 730 730 731 731 732 733 734 735 736 737 739 740 741 742 743 744 746 748 750 752 754 757 759 762 764 767 770 773 776 778 780 781 782 784 786 787 788 789 790 791 792 793 794 794 795 796 797 798 799 800 800 801 801 802 802 803 803 804 804 805
747 747 746 746 745 745 744 743 743 741 740 739 738 737 736 736 736 736 736 736 735 735 735 735 735 734 734 734 734 734 734 735 736 737 738 739 740 741 742 743 744 746 747 748 751 753 755 758 760 763 765 768 770 773 776 778 780 782 783 784 785 787 789 790 791 792 792 793 794 794 795 796 797 798 799 799 800 800 801 801 802 802 803 803 804 804
749 748 748 748 747 747 746 745 743 743 741 740 739 739 739 739 739 739 739 739 739 738 738 738 738 738 738 738 737 737 737 738 738 739 740 741 742 743 744 745 746 747 748 749 752 754 757 759 761 763 766 768 770 772 775 778 780 782 783 784 785 787 789 790 791 792 792 793 794 794 795 796 797 798 798 799 799 800 800 801 801 802 802 803 803 803
751 751 750 749 748 748 747 746 745 744 743 742 742 741 741 741 741 741 741 741 741 741 741 741 741 740 740 740 741 741 741 741 741 741 742 743 744 745 746 747 748 749 750 751 753 756 758 760 763 765 767 769 771 773 775 778 780 782 784 785 786 787 788 789 791 791 792 793 793 794 794 795 796 797 798 799 799 799 799 800 800 801 801 802 802 803
754 753 752 751 750 749 748 748 747 746 745 744 744 743 743 743 743 743 743 743 743 743 743 743 743 742 742 743 743 743 744 744 744 744 745 746 747 748 748 749 750 751 752 753 755 757 759 762 764 767 768 770 772 774 776 778 780 782 784 785 786 787 788 789 790 791 792 793 793 794 794 795 796 797 798 798 799 799 799 800 800 800 801 801 801 802
756 755 754 753 753 752 751 750 749 748 748 747 746 746 746 745 745 745 745 744 744 745 745 745 744 745 745 746 746 746 747 747 748 748 749 749 750 750 751 752 753 753 754 756 758 760 761 764 766 768 770 772 774 776 778 779 780 782 784 785 786 787 788 790 791 792 792 793 793 794 794 795 796 797 797 798 799 799 799 799 800 800 800 801 801 801
758 758 757 756 756 755 754 753 753 752 751 750 750 749 749 748 748 748 747 747 747 747 748 747 747 748 749 749 750 750 750 751 752 752 753 753 753 754 754 755 756 756 757 758 760 762 764 766 768 769 771 773 775 777 779 780 781 783 784 785 787 788 789 790 791 791 792 792 793 794 794 795 795 796 797 797 798 799 799 799 799 799 800 800 800 800
761 761 760 759 758 758 757 756 755 755 754 754 753 753 753 752 752 751 751 751 751 751 751 751 751 752 753 753 754 754 754 755 755 756 756 757 757 757 758 758 759 759 760 761 762 764 765 768 769 771 773 774 776 778 779 781 782 784 785 786 787 788 789 789 790 791 791 792 792 793 794 794 795 796 796 797 798 798 799 799 799 799 799 799 799 799
763 763 762 762 761 760 759 759 758 758 758 757 757 756 756 755 755 754 754 754 754 754 754 755 755 756 757 757 758 758 758 758 758 758 759 760 760 761 761 761 762 762 763 763 764 766 767 768 770 773 774 776 777 779 780 782 783 784 786 787 787 788 789 789 790 791 791 792 792 793 794 794 795 795 796 797 798 798 799 799 799 799 799 799 799 799
765 765 764 763 763 763 762 762 761 761 760 760 760 759 759 758 758 758 758 758 758 758 758 758 759 759 760 761 761 761 761 761 761 761 762 762 763 763 764 764 764 765 765 766 767 768 769 770 772 774 776 777 779 780 782 783 784 785 786 787 788 788 789 789 790 791 791 792 792 793 794 794 795 796 796 797 798 798 798 799 799 799 799 798 798 798
767 766 766 765 765 764 764 764 763 763 763 763 762 762 761 761 760 760 760 760 760 761 761 761 762 762 763 763 764 764 764 763 763 763 764 764 765 766 766 767 767 767 767 768 769 770 771 773 774 776 778 779 780 782 783 784 785 786 787 788 788 789 789 790 790 791 792 792 793 793 794 795 795 796 797 797 798 798 798 798 798 798 798 798 798 798